Weather History for Holland, MI

Change the Weather History Date:

Friday, March 14, 2014

  Actual Average Record
Temperature  
Mean Temperature 38 °F 36 °F  
Max Temperature 48 °F 44 °F 80 °F (2012)
Min Temperature 27 °F 28 °F 9 °F (2005)
Degree Days  
Heating Degree Days 27 29  
Month to date heating degree days 590 436  
Since 1 July heating degree days 5748 4936  
Cooling Degree Days 0 0  
Month to date cooling degree days 0 0  
Year to date cooling degree days 0 0  
Moisture  
Dew Point 29 °F    
Average Humidity 64    
Maximum Humidity 81    
Minimum Humidity 46    
Precipitation  
Precipitation 0.00 in 0.08 in 0.68 in (1973)
Month to date precipitation 0.32 1.10  
Year to date precipitation 4.28 4.99  
Sea Level Pressure  
Sea Level Pressure 29.68 in    
Wind  
Wind Speed 22 mph (SW)    
Max Wind Speed 38 mph    
Max Gust Speed 48 mph    
Visibility 10 miles    
Events      
T = Trace of Precipitation, MM = Missing Value Source: NWS Daily Summary

Daily Weather History Graph

Daily Weather History Graph

Search for Another Location

Airport:

Trip Planner

Search our weather history database for the weather conditions in past years. The results will help you decide how hot, cold, wet, or windy it might be!

Date:

Astronomy

Mar. 14, 2014 Rise Set
Actual Time 7:58 AM EDT 7:49 PM EDT
Civil Twilight 7:29 AM EDT 8:17 PM EDT
Nautical Twilight 6:57 AM EDT 8:50 PM EDT
Astronomical Twilight 6:23 AM EDT 9:24 PM EDT
Moon 6:09 PM EDT (3/14) 6:39 AM EDT (3/14)
Length of Visible Light 12h 47m
Length of Day
11h 51m
Waxing Gibbous, 96% of the Moon is Illuminated
Mar 14
Waxing Gibbous
Mar 16
Full
Mar 23
Last Quarter
Mar 30
New
Apr 7
First Quarter

Hourly Weather History & Observations

Time (EDT) Temp. Windchill Dew Point Humidity Pressure Visibility Wind Dir Wind Speed Gust Speed Precip Events Conditions
12:53 AM 27.0 °F 18.0 °F 21.0 °F 78% 29.87 in 10.0 mi South 9.2 mph - N/A   Clear
1:53 AM 28.0 °F 18.1 °F 21.9 °F 78% 29.84 in 10.0 mi South 11.5 mph - N/A   Clear
2:53 AM 37.9 °F 27.1 °F 30.0 °F 73% 29.81 in 10.0 mi SSW 23.0 mph 33.4 mph N/A   Clear
3:53 AM 39.0 °F 28.0 °F 30.0 °F 70% 29.78 in 10.0 mi SSW 25.3 mph 36.8 mph N/A   Clear
4:53 AM 41.0 °F 31.1 °F 30.0 °F 65% 29.74 in 10.0 mi SSW 23.0 mph 29.9 mph N/A   Clear
5:53 AM 42.1 °F 32.3 °F 30.9 °F 65% 29.70 in 10.0 mi SSW 24.2 mph 34.5 mph N/A   Clear
6:53 AM 37.0 °F 27.4 °F 30.0 °F 76% 29.68 in 10.0 mi South 17.3 mph - N/A   Clear
7:53 AM 43.0 °F 33.3 °F 28.9 °F 58% 29.65 in 10.0 mi SSW 25.3 mph 33.4 mph N/A   Clear
8:53 AM 44.1 °F 33.8 °F 28.9 °F 55% 29.64 in 10.0 mi SSW 31.1 mph 43.7 mph N/A   Overcast
9:53 AM 44.1 °F 34.0 °F 28.9 °F 55% 29.62 in 10.0 mi SSW 29.9 mph 42.6 mph N/A   Scattered Clouds
10:53 AM 46.0 °F 37.4 °F 28.0 °F 50% 29.59 in 10.0 mi SW 25.3 mph 35.7 mph N/A   Clear
11:53 AM 48.0 °F - 28.0 °F 46% 29.57 in 10.0 mi SW 32.2 mph 46.0 mph N/A   Clear
12:53 PM 46.9 °F - 28.9 °F 50% 29.56 in 10.0 mi SW 31.1 mph 43.7 mph N/A   Clear
1:53 PM 46.0 °F 36.1 °F 30.0 °F 54% 29.56 in 10.0 mi SW 34.5 mph 41.4 mph N/A   Partly Cloudy
2:53 PM 46.0 °F 38.0 °F 30.9 °F 56% 29.56 in 10.0 mi SW 21.9 mph 34.5 mph N/A   Partly Cloudy
3:53 PM 43.0 °F 34.5 °F 30.9 °F 62% 29.57 in 10.0 mi SW 19.6 mph - N/A   Mostly Cloudy
4:53 PM 43.0 °F 35.1 °F 32.0 °F 65% 29.57 in 10.0 mi SW 17.3 mph 24.2 mph N/A   Partly Cloudy
5:53 PM 43.0 °F 33.1 °F 30.9 °F 62% 29.60 in 10.0 mi WSW 26.5 mph 34.5 mph N/A   Clear
6:53 PM 39.9 °F 30.8 °F 32.0 °F 73% 29.64 in 10.0 mi WSW 18.4 mph 27.6 mph N/A   Mostly Cloudy
7:53 PM 39.9 °F 32.5 °F 30.9 °F 70% 29.70 in 10.0 mi West 12.7 mph 20.7 mph N/A   Overcast
8:53 PM 37.9 °F 28.9 °F 30.9 °F 76% 29.73 in 10.0 mi West 16.1 mph 24.2 mph N/A   Overcast
9:53 PM 37.9 °F 28.9 °F 30.0 °F 73% 29.75 in 10.0 mi West 16.1 mph - N/A   Overcast
10:53 PM 37.0 °F 27.0 °F 30.9 °F 79% 29.77 in 10.0 mi WSW 18.4 mph - N/A   Overcast
11:53 PM 37.0 °F 26.4 °F 30.9 °F 79% 29.78 in 10.0 mi WSW 20.7 mph - N/A   Overcast